Clermont County, Batavia, OH

7:36 PM EST on December 15, 2019 (GMT -0500)
Clermont County, Batavia

Weather History for KI69 - October, 2019

Change the Weather History Date:

Saturday, October 5, 2019

  Actual Average (KLUK) Record (KLUK)
Temperature  
Mean Temperature 62 °F -  
Max Temperature 77 °F 71 °F 90 °F (1951)
Min Temperature 46 °F 47 °F 32 °F (1965)
Degree Days  
Heating Degree Days 4    
Growing Degree Days 12 (Base 50)    
Moisture  
Dew Point 48 °F    
Average Humidity 67    
Maximum Humidity 90    
Minimum Humidity 38    
Precipitation  
Precipitation 0.00 in - - ()
Sea Level Pressure  
Sea Level Pressure 30.13 in    
Wind  
Wind Speed 4 mph (East)    
Max Wind Speed 8 mph    
Max Gust Speed -    
Visibility 10 miles    
Events      
Averages and records for this station are not official NWS values.
T = Trace of Precipitation, MM = Missing Value Source: NWS Daily Summary

Daily Weather History Graph

Daily Weather History Graph

Search for Another Location

Airport or City:

Astronomy

Oct. 05, 2019 Rise Set
Actual Time 7:36 AM EDT 7:13 PM EDT
Civil Twilight 7:09 AM EDT 7:40 PM EDT
Nautical Twilight 6:38 AM EDT 8:11 PM EDT
Astronomical Twilight 6:07 AM EDT 8:42 PM EDT
Moon 2:58 PM EDT (10/5) No Moon Set
Length of Visible Light 12h 30m
Length of Day
11h 37m
Waxing Crescent, 50% of the Moon is Illuminated
Oct 5
Waxing Crescent
Oct 5
First Quarter
Oct 13
Full
Oct 21
Last Quarter
Oct 27
New

Hourly Weather History & Observations

Time (EDT) Temp. Dew Point Humidity Pressure Visibility Wind Dir Wind Speed Gust Speed Precip Events Conditions
12:16 AM 53.8 °F 46.9 °F 78% 30.29 in 10.0 mi ENE 3.5 mph - N/A   Clear
12:35 AM 54.0 °F 46.8 °F 77% 30.28 in 10.0 mi NE 4.6 mph - N/A   Clear
12:55 AM 53.2 °F 46.4 °F 78% 30.28 in 10.0 mi ENE 4.6 mph - N/A   Clear
1:15 AM 53.1 °F 46.4 °F 78% 30.27 in 10.0 mi East 4.6 mph - N/A   Clear
1:38 AM 53.2 °F 45.9 °F 76% 30.26 in 10.0 mi East 4.6 mph - N/A   Clear
1:56 AM 52.7 °F 45.9 °F 78% 30.26 in 10.0 mi East 4.6 mph - N/A   Clear
2:15 AM 52.3 °F 45.7 °F 78% 30.25 in 10.0 mi East 4.6 mph - N/A   Clear
2:35 AM 51.8 °F 45.5 °F 79% 30.26 in 10.0 mi NE 6.9 mph - N/A   Clear
2:55 AM 51.6 °F 45.3 °F 79% 30.25 in 10.0 mi ENE 3.5 mph - N/A   Clear
3:00 AM 51.3 °F 45.1 °F 80% 30.25 in 10.0 mi ENE 5.8 mph - N/A   Clear
3:18 AM 51.1 °F 45.0 °F 80% 30.24 in 10.0 mi East 5.8 mph - N/A   Clear
3:36 AM 50.9 °F 44.8 °F 80% 30.24 in 10.0 mi ENE 4.6 mph - N/A   Clear
3:55 AM 50.7 °F 44.6 °F 80% 30.23 in 10.0 mi ENE 4.6 mph - N/A   Clear
4:15 AM 50.4 °F 44.6 °F 81% 30.22 in 10.0 mi East 5.8 mph - N/A   Clear
4:39 AM 50.0 °F 44.6 °F 82% 30.22 in 10.0 mi ENE 5.8 mph - N/A   Clear
4:58 AM 49.6 °F 44.6 °F 83% 30.21 in 10.0 mi ENE 5.8 mph - N/A   Clear
5:16 AM 49.3 °F 44.4 °F 83% 30.21 in 10.0 mi ENE 6.9 mph - N/A   Clear
5:35 AM 49.1 °F 44.6 °F 84% 30.21 in 10.0 mi ENE 4.6 mph - N/A   Clear
5:55 AM 48.2 °F 44.2 °F 86% 30.21 in 10.0 mi ENE 4.6 mph - N/A   Clear
6:19 AM 48.0 °F 44.1 °F 86% 30.20 in 10.0 mi ENE 4.6 mph - N/A   Clear
6:38 AM 47.7 °F 44.1 °F 87% 30.20 in 10.0 mi Calm Calm - N/A   Clear
6:56 AM 46.8 °F 43.9 °F 90% 30.19 in 10.0 mi NE 3.5 mph - N/A   Clear
7:15 AM 46.8 °F 43.9 °F 90% 30.19 in 7.0 mi ENE 3.5 mph - N/A   Clear
7:35 AM 46.4 °F 43.7 °F 90% 30.20 in 10.0 mi Calm Calm - N/A   Clear
7:59 AM 46.6 °F 43.7 °F 90% 30.19 in 10.0 mi Calm Calm - N/A   Clear
8:17 AM 47.3 °F 44.1 °F 88% 30.19 in 10.0 mi Calm Calm - N/A   Clear
8:36 AM 48.4 °F 44.4 °F 86% 30.19 in 10.0 mi ENE 3.5 mph - N/A   Clear
8:55 AM 49.3 °F 44.8 °F 84% 30.19 in 10.0 mi East 5.8 mph - N/A   Clear
9:15 AM 50.7 °F 45.1 °F 81% 30.19 in 10.0 mi ENE 5.8 mph - N/A   Clear
9:39 AM 52.5 °F 45.9 °F 78% 30.19 in 10.0 mi ENE 5.8 mph - N/A   Clear
9:57 AM 54.1 °F 46.0 °F 74% 30.19 in 10.0 mi East 6.9 mph - N/A   Clear
10:15 AM 55.6 °F 46.4 °F 71% 30.19 in 10.0 mi East 5.8 mph - N/A   Clear
10:35 AM 56.5 °F 46.8 °F 70% 30.19 in 10.0 mi Calm Calm - N/A   Clear
10:55 AM 59.0 °F 47.7 °F 66% 30.18 in 10.0 mi ENE 3.5 mph - N/A   Clear
11:19 AM 60.4 °F 48.0 °F 64% 30.18 in 10.0 mi ENE 3.5 mph - N/A   Clear
11:37 AM 62.1 °F 47.8 °F 60% 30.17 in 10.0 mi East 3.5 mph - N/A   Clear
11:55 AM 63.5 °F 48.2 °F 57% 30.16 in 10.0 mi East 4.6 mph - N/A   Clear
12:15 PM 65.7 °F 48.7 °F 54% 30.14 in 10.0 mi Calm Calm - N/A   Clear
12:35 PM 66.7 °F 48.9 °F 53% 30.13 in 10.0 mi NNE 6.9 mph - N/A   Clear
12:59 PM 68.5 °F 48.7 °F 49% 30.12 in 10.0 mi ENE 8.1 mph - N/A   Clear
1:17 PM 70.2 °F 49.3 °F 47% 30.10 in 10.0 mi East 4.6 mph - N/A   Clear
1:35 PM 71.1 °F 49.5 °F 46% 30.09 in 10.0 mi SE 6.9 mph - N/A   Clear
1:55 PM 72.1 °F 49.3 °F 44% 30.08 in 10.0 mi SE 6.9 mph - N/A   Clear
2:39 PM 73.0 °F 49.8 °F 44% 30.06 in 10.0 mi SSE 3.5 mph - N/A   Clear
2:57 PM 73.8 °F 50.0 °F 43% 30.06 in 10.0 mi East 3.5 mph - N/A   Clear
3:15 PM 75.7 °F 49.5 °F 40% 30.06 in 10.0 mi SSE 5.8 mph - N/A   Clear
3:35 PM 75.7 °F 49.8 °F 40% 30.05 in 10.0 mi Calm Calm - N/A   Clear
3:55 PM 75.9 °F 49.1 °F 39% 30.04 in 10.0 mi ENE 3.5 mph - N/A   Clear
4:19 PM 76.6 °F 49.1 °F 38% 30.04 in 10.0 mi ESE 3.5 mph - N/A   Clear
4:37 PM 77.0 °F 50.2 °F 39% 30.03 in 10.0 mi SE 5.8 mph - N/A   Clear
4:55 PM 76.6 °F 49.3 °F 38% 30.03 in 10.0 mi ESE 3.5 mph - N/A   Clear
5:15 PM 77.0 °F 49.8 °F 38% 30.02 in 10.0 mi SSE 3.5 mph - N/A   Clear
5:35 PM 77.0 °F 50.0 °F 39% 30.03 in 10.0 mi Calm Calm - N/A   Clear
5:58 PM 76.8 °F 49.8 °F 39% 30.03 in 10.0 mi Calm Calm - N/A   Clear
6:16 PM 76.8 °F 49.6 °F 38% 30.03 in 10.0 mi Calm Calm - N/A   Clear
6:35 PM 76.3 °F 50.0 °F 40% 30.03 in 10.0 mi Calm Calm - N/A   Clear
6:55 PM 74.1 °F 50.2 °F 43% 30.02 in 10.0 mi Calm Calm - N/A   Clear
7:15 PM 73.6 °F 49.8 °F 43% 30.01 in 10.0 mi Calm Calm - N/A   Clear
7:38 PM 70.7 °F 52.7 °F 53% 30.01 in 10.0 mi Calm Calm - N/A   Clear
7:56 PM 68.9 °F 52.5 °F 56% 30.01 in 10.0 mi Calm Calm - N/A   Clear
8:15 PM 67.5 °F 52.9 °F 59% 30.01 in 10.0 mi Calm Calm - N/A   Clear
8:16 PM 67.3 °F 52.9 °F 60% 30.01 in 10.0 mi Calm Calm - N/A   Clear
8:35 PM 66.0 °F 52.7 °F 62% 30.01 in 10.0 mi Calm Calm - N/A   Clear
8:55 PM 65.3 °F 52.9 °F 64% 30.01 in 10.0 mi Calm Calm - N/A   Clear
9:18 PM 63.0 °F 53.1 °F 70% 30.02 in 10.0 mi Calm Calm - N/A   Clear
9:36 PM 62.6 °F 52.9 °F 70% 30.02 in 10.0 mi Calm Calm - N/A   Clear
9:55 PM 63.5 °F 53.2 °F 69% 30.02 in 10.0 mi Calm Calm - N/A   Clear
10:15 PM 62.1 °F 53.4 °F 73% 30.02 in 10.0 mi Calm Calm - N/A   Clear
10:16 PM 62.1 °F 53.4 °F 73% 30.02 in 10.0 mi Calm Calm - N/A   Clear
10:35 PM 62.2 °F 53.4 °F 73% 30.02 in 10.0 mi Calm Calm - N/A   Clear
10:58 PM 61.2 °F 53.6 °F 76% 30.02 in 10.0 mi Calm Calm - N/A   Clear
11:16 PM 61.0 °F 53.8 °F 77% 30.02 in 10.0 mi Calm Calm - N/A   Clear
11:35 PM 59.5 °F 54.0 °F 82% 30.02 in 10.0 mi Calm Calm - N/A   Clear
11:55 PM 59.4 °F 54.0 °F 82% 30.02 in 10.0 mi Calm Calm - N/A   Scattered Clouds